Weather observations for the past three days for
Tanana, Calhoun Memorial Airport
Imperial (Metric)
Date Time (akdt) Wind (mph) Vis. (mi.) Weather Sky Cond. Temperature (ºF) Relative Humidity Wind Chill (°F) Heat Index (°F) Pressure Precipitation (in)
Air Dwpt 6 hour altimeter (in) sea level (mb) 1 hr 3 hr 6 hr
Max. Min.
24 00:52 Calm 10.00 Light Rain CLR 64.9 59 81% 29.95 1014.1
23 23:52 Vrbl 3 10.00 Fair CLR 70 60.1 71% 29.94 1014.0
23 22:52 Calm 10.00 Fair CLR 71.1 61 71% 29.94 1013.9
23 21:52 N 5 10.00 Partly Cloudy SCT055 79 60.1 86 75 52% 80 29.94 1013.7
23 20:52 W 3 10.00 Partly Cloudy SCT055 82 59 46% 82 29.94 1013.8
23 19:52 Calm 10.00 Partly Cloudy SCT055 84.9 59 42% 85 29.94 1013.9
23 18:52 Calm 10.00 Partly Cloudy SCT055 86 60.1 42% 86 29.94 1014.0
23 17:52 Calm 10.00 Partly Cloudy SCT060 84.9 60.1 43% 85 29.95 1014.2
23 16:52 Calm 10.00 Partly Cloudy SCT060 84.9 57.9 40% 84 29.96 1014.5
23 15:52 Calm 10.00 Partly Cloudy FEW060 SCT070 82.9 60.1 84.9 71.1 46% 83 29.97 1015.0
23 14:52 SE 5 10.00 Partly Cloudy FEW055 SCT065 84 61 46% 84 29.98 1015.4
23 13:52 Calm 10.00 A Few Clouds FEW045 82 62.1 51% 83 29.99 1015.5
23 12:52 SW 3 10.00 A Few Clouds FEW050 FEW130 80.1 61 52% 81 29.99 1015.7
23 11:52 Calm 10.00 Partly Cloudy SCT130 78.1 60.1 54% 79 30 1016.0
23 10:52 SW 3 10.00 Partly Cloudy SCT130 75 61 62% 77 30 1016.0
23 09:52 Calm 10.00 Partly Cloudy SCT130 71.1 62.1 71.1 57.9 73% 30 1016.0
23 08:52 Calm 10.00 Partly Cloudy SCT130 66.9 61 81% 30 1016.0
23 07:52 Calm 10.00 Mostly Cloudy BKN100 68 62.1 81% 30 1015.9
23 06:52 Calm 10.00 Partly Cloudy SCT100 63 60.1 90% 29.99 1015.6
23 05:52 Calm 10.00 Partly Cloudy SCT100 61 59 93% 29.99 1015.5
23 04:52 SW 3 10.00 Fair CLR 59 57 93% 29.98 1015.2
23 03:52 Calm 10.00 Fair CLR 59 57.9 78.1 57.9 96% 29.97 1015.0
23 02:52 W 3 10.00 Fair CLR 59 55.9 90% 29.96 1014.7
23 01:52 Calm 10.00 Fair CLR 60.1 57 90% 29.96 1014.6
23 00:52 W 5 10.00 Light Rain CLR 64.9 59 81% 29.96 1014.6
22 23:52 W 3 7.00 Light Rain CLR 66 60.1 81% 29.96 1014.4
22 22:52 NW 3 10.00 Fair CLR 73 57.9 59% 29.94 1014.0
22 21:52 N 9 G 17 10.00 Mostly Cloudy BKN067 79 57 84 79 47% 80 29.94 1013.7
22 20:52 N 7 10.00 Partly Cloudy SCT067 80.1 57 45% 80 29.93 1013.6
22 19:52 NW 10 10.00 Partly Cloudy SCT060 82 57 43% 82 29.93 1013.7
22 18:52 Vrbl 6 G 17 10.00 A Few Clouds FEW060 FEW100 82.9 55 38% 82 29.93 1013.8
22 17:52 W 8 10.00 A Few Clouds FEW060 82.9 55.9 40% 82 29.94 1014.1
22 16:52 NW 7 10.00 Partly Cloudy SCT060 82.9 59 44% 83 29.95 1014.4
22 15:52 SW 6 10.00 A Few Clouds FEW055 80.1 60.1 81 72 51% 81 29.96 1014.6
22 14:52 Vrbl 5 10.00 A Few Clouds FEW055 81 59 47% 81 29.98 1015.4
22 13:52 Vrbl 5 10.00 A Few Clouds FEW055 80.1 59 49% 81 29.99 1015.8
22 12:52 NW 7 10.00 A Few Clouds FEW045 77 57.9 52% 79 30.01 1016.4
22 11:52 W 6 10.00 A Few Clouds FEW045 73.9 57 56% 30.03 1017.0
22 10:52 Vrbl 7 10.00 A Few Clouds FEW050 75 55.9 52% 78 30.04 1017.2
22 09:52 NW 7 10.00 A Few Clouds FEW045 72 54 73 46 53% 30.04 1017.4
22 08:52 W 6 10.00 A Few Clouds FEW040 63 55 76% 30.05 1017.7
22 07:52 Calm 10.00 A Few Clouds FEW040 62.1 55 78% 30.06 1018.0
22 06:52 Calm 10.00 Fair CLR 54 50 87% 30.07 1018.4
22 05:52 N 3 10.00 Light Rain CLR 46.9 45 93% 30.07 1018.6
22 04:52 Calm 10.00 Fair CLR 46.9 46 97% 30.07 1018.6
22 03:52 N 3 10.00 Light Rain CLR 48 46 71.1 48 93% 30.08 1018.8
22 02:52 Calm 10.00 Light Rain CLR 51.1 48.9 92% 30.08 1018.6
22 01:52 NW 3 10.00 Light Rain CLR 54 51.1 90% 30.08 1018.9
22 00:52 Calm 10.00 Fair CLR 59 52 78% 30.08 1018.7
21 23:52 NE 3 10.00 Light Rain CLR 62.1 52 70% 30.08 1018.8
21 22:52 N 3 10.00 Light Rain CLR 68 54 61% 30.08 1018.6
21 21:52 Calm 10.00 A Few Clouds FEW130 70 59 79 70 68% 30.07 1018.6
21 20:52 NW 3 10.00 A Few Clouds FEW070 FEW120 75.9 55 48% 78 30.08 1018.6
21 19:52 Calm 10.00 A Few Clouds FEW065 FEW130 77 52 42% 78 30.07 1018.6
21 18:52 SW 3 10.00 A Few Clouds FEW065 FEW130 77 55 47% 78 30.08 1018.8
21 17:52 Vrbl 3 10.00 A Few Clouds FEW065 FEW130 78.1 52 40% 79 30.09 1019.2
21 16:52 SW 5 10.00 Partly Cloudy FEW055 SCT150 75.9 54 47% 78 30.1 1019.5
21 15:52 Vrbl 5 10.00 Partly Cloudy FEW055 SCT150 77 53.1 78.1 63 43% 78 30.12 1020.0
21 14:52 Vrbl 6 10.00 Partly Cloudy FEW055 SCT200 77 53.1 43% 78 30.13 1020.4
21 13:52 W 3 10.00 Partly Cloudy FEW055 SCT200 75 53.1 46% 78 30.14 1020.9
21 12:52 W 5 10.00 Partly Cloudy FEW060 SCT200 73 53.1 50% 30.16 1021.3
21 11:52 W 3 8.00 Fair CLR 70 53.1 55% 30.16 1021.5
21 10:52 Calm 10.00 Fair CLR 66 55 68% 30.17 1021.8
21 09:52 Calm 10.00 Fair CLR 63 53.1 63 46 70% 30.18 1022.1
21 08:52 SE 3 10.00 Fair CLR 61 53.1 75% 30.18 1022.1
21 07:52 Calm 10.00 Fair CLR 57.9 53.1 84% 30.17 1022.0
21 06:52 Calm 10.00 Fair CLR 51.1 48.9 92% 30.18 1022.1
21 05:52 N 3 10.00 Partly Cloudy SCT130 46 45 96% 30.18 1022.1
21 04:52 Calm 10.00 Fair CLR 46.9 45 93% 30.17 1021.9
21 03:52 N 5 10.00 Light Rain CLR 48 46 66 48 93% 47 30.17 1021.9
21 02:52 Calm 10.00 Fair CLR 48.9 46.9 93% 30.17 1021.9
21 01:52 N 5 10.00 Fair CLR 51.1 48.9 92% 30.17 1021.8
Date Time (akdt) Wind (mph) Vis. (mi.) Weather Sky Cond. Air Dwpt Max. Min. Relative Humidity Wind Chill (°F) Heat Index (°F) altimeter (in) sea level (mb) 1 hr 3 hr 6 hr
6 hour
Temperature (ºF) Pressure Precipitation (in)